Time,TemperatureF,DewpointF,PressureIn,WindDirection,WindDirectionDegrees,WindSpeedMPH,WindSpeedGustMPH,Humidity,HourlyPrecipIn,Conditions,Clouds,dailyrainin,SoftwareType,DateUTC
2013-06-25 00:00:00,68.4,65.7,29.90,SE,128,3.0,7.0,91,0.00,,,0.00,Wunderground v.1.15,2013-06-25 05:00:00,
2013-06-25 00:02:00,68.6,65.5,29.89,SE,131,4.0,7.0,90,0.00,,,0.00,Wunderground v.1.15,2013-06-25 05:02:00,
2013-06-25 00:04:00,68.8,65.7,29.89,SE,124,5.0,7.0,90,0.00,,,0.00,Wunderground v.1.15,2013-06-25 05:04:00,
2013-06-25 00:06:00,68.9,65.5,29.89,SE,133,5.0,7.0,89,0.00,,,0.00,Wunderground v.1.15,2013-06-25 05:06:00,
2013-06-25 00:08:00,69.0,65.6,29.89,SE,131,5.0,7.0,89,0.00,,,0.00,Wunderground v.1.15,2013-06-25 05:08:00,
2013-06-25 00:10:00,69.0,65.6,29.89,ESE,113,6.0,6.0,89,0.00,,,0.00,Wunderground v.1.15,2013-06-25 05:10:00,
2013-06-25 00:14:00,69.1,65.4,29.89,SE,124,6.0,7.0,88,0.00,,,0.00,Wunderground v.1.15,2013-06-25 05:14:00,
2013-06-25 00:16:00,69.0,65.6,29.88,SE,124,6.0,7.0,89,0.00,,,0.00,Wunderground v.1.15,2013-06-25 05:16:00,
2013-06-25 00:18:00,69.0,65.6,29.88,SE,143,7.0,7.0,89,0.00,,,0.00,Wunderground v.1.15,2013-06-25 05:18:00,
2013-06-25 00:20:00,69.0,65.6,29.88,SE,136,7.0,9.0,89,0.00,,,0.00,Wunderground v.1.15,2013-06-25 05:20:00,
2013-06-25 00:22:00,68.9,65.5,29.88,SE,124,7.0,9.0,89,0.00,,,0.00,Wunderground v.1.15,2013-06-25 05:22:00,
2013-06-25 00:26:00,68.8,65.4,29.88,SE,143,7.0,9.0,89,0.00,,,0.00,Wunderground v.1.15,2013-06-25 05:26:00,
2013-06-25 00:30:00,68.7,65.6,29.88,SE,124,6.0,7.0,90,0.00,,,0.00,Wunderground v.1.15,2013-06-25 05:30:00,
2013-06-25 00:32:00,68.6,65.5,29.88,ESE,117,5.0,7.0,90,0.00,,,0.00,Wunderground v.1.15,2013-06-25 05:32:00,
2013-06-25 00:34:00,68.6,65.5,29.88,ESE,120,5.0,7.0,90,0.00,,,0.00,Wunderground v.1.15,2013-06-25 05:34:00,
2013-06-25 00:40:00,68.4,65.7,29.88,ESE,118,4.0,4.0,91,0.00,,,0.00,Wunderground v.1.15,2013-06-25 05:40:00,
2013-06-25 00:42:00,68.4,65.7,29.88,SE,129,4.0,7.0,91,0.00,,,0.00,Wunderground v.1.15,2013-06-25 05:42:00,
2013-06-25 00:44:00,68.3,65.6,29.88,SE,131,4.0,7.0,91,0.00,,,0.00,Wunderground v.1.15,2013-06-25 05:44:00,
2013-06-25 00:46:00,68.3,65.6,29.88,East,94,3.0,7.0,91,0.00,,,0.00,Wunderground v.1.15,2013-06-25 05:46:00,
2013-06-25 00:48:00,68.2,65.8,29.88,ESE,115,3.0,7.0,92,0.00,,,0.00,Wunderground v.1.15,2013-06-25 05:48:00,
2013-06-25 00:50:00,68.2,65.8,29.88,SE,132,3.0,3.0,92,0.00,,,0.00,Wunderground v.1.15,2013-06-25 05:50:00,
2013-06-25 00:52:00,68.1,65.7,29.88,SE,143,2.0,7.0,92,0.00,,,0.00,Wunderground v.1.15,2013-06-25 05:52:00,
2013-06-25 00:54:00,68.1,65.7,29.88,ESE,110,2.0,7.0,92,0.00,,,0.00,Wunderground v.1.15,2013-06-25 05:54:00,
2013-06-25 00:56:00,68.2,66.1,29.87,SE,134,3.0,7.0,93,0.00,,,0.00,Wunderground v.1.15,2013-06-25 05:56:00,
2013-06-25 00:58:00,68.3,65.9,29.87,ESE,120,3.0,7.0,92,0.00,,,0.00,Wunderground v.1.15,2013-06-25 05:58:00,
2013-06-25 01:00:00,68.5,66.1,29.87,SSE,158,4.0,4.0,92,0.00,,,0.00,Wunderground v.1.15,2013-06-25 06:00:00,
2013-06-25 01:02:00,68.6,66.2,29.87,SE,124,5.0,5.0,92,0.00,,,0.00,Wunderground v.1.15,2013-06-25 06:02:00,
2013-06-25 01:04:00,68.6,66.2,29.87,SE,127,5.0,8.0,92,0.00,,,0.00,Wunderground v.1.15,2013-06-25 06:04:00,
2013-06-25 01:08:00,68.9,66.5,29.87,SE,124,6.0,8.0,92,0.00,,,0.00,Wunderground v.1.15,2013-06-25 06:08:00,
2013-06-25 01:12:00,69.0,66.6,29.87,SE,134,6.0,7.0,92,0.00,,,0.00,Wunderground v.1.15,2013-06-25 06:12:00,
2013-06-25 01:14:00,69.0,66.6,29.86,ESE,117,5.0,7.0,92,0.00,,,0.00,Wunderground v.1.15,2013-06-25 06:14:00,
2013-06-25 01:16:00,69.0,66.6,29.86,ESE,117,5.0,7.0,92,0.00,,,0.00,Wunderground v.1.15,2013-06-25 06:16:00,
2013-06-25 01:18:00,69.0,66.6,29.86,South,170,4.0,7.0,92,0.00,,,0.00,Wunderground v.1.15,2013-06-25 06:18:00,
2013-06-25 01:24:00,69.2,66.8,29.86,SE,131,4.0,7.0,92,0.00,,,0.00,Wunderground v.1.15,2013-06-25 06:24:00,
2013-06-25 01:26:00,69.3,66.9,29.86,South,176,4.0,7.0,92,0.00,,,0.00,Wunderground v.1.15,2013-06-25 06:26:00,
2013-06-25 01:30:00,69.3,66.9,29.86,South,172,4.0,7.0,92,0.00,,,0.00,Wunderground v.1.15,2013-06-25 06:30:00,
2013-06-25 01:34:00,69.5,67.1,29.86,South,182,4.0,7.0,92,0.00,,,0.00,Wunderground v.1.15,2013-06-25 06:34:00,
2013-06-25 01:36:00,69.5,67.1,29.86,SSE,147,4.0,20.0,92,0.00,,,0.00,Wunderground v.1.15,2013-06-25 06:36:00,
2013-06-25 01:38:00,69.7,67.6,29.86,SSE,163,4.0,20.0,93,0.00,,,0.00,Wunderground v.1.15,2013-06-25 06:38:00,
2013-06-25 01:42:00,69.9,67.8,29.86,East,86,4.0,5.0,93,0.00,,,0.00,Wunderground v.1.15,2013-06-25 06:42:00,
2013-06-25 01:44:00,70.0,67.9,29.86,SSE,156,5.0,7.0,93,0.00,,,0.00,Wunderground v.1.15,2013-06-25 06:44:00,
2013-06-25 01:46:00,70.2,68.1,29.86,SSW,201,5.0,7.0,93,0.00,,,0.00,Wunderground v.1.15,2013-06-25 06:46:00,
2013-06-25 01:48:00,70.3,68.2,29.86,SSW,195,4.0,7.0,93,0.00,,,0.00,Wunderground v.1.15,2013-06-25 06:48:00,
2013-06-25 01:52:00,70.5,68.4,29.86,SSE,153,4.0,7.0,93,0.00,,,0.00,Wunderground v.1.15,2013-06-25 06:52:00,
2013-06-25 01:54:00,70.5,68.4,29.86,SE,141,4.0,7.0,93,0.00,,,0.00,Wunderground v.1.15,2013-06-25 06:54:00,
2013-06-25 01:56:00,70.6,68.2,29.86,SE,139,4.0,7.0,92,0.00,,,0.00,Wunderground v.1.15,2013-06-25 06:56:00,
2013-06-25 01:58:00,70.6,68.5,29.86,South,186,5.0,9.0,93,0.00,,,0.00,Wunderground v.1.15,2013-06-25 06:58:00,
2013-06-25 02:00:00,70.7,68.3,29.86,SSE,160,5.0,5.0,92,0.00,,,0.00,Wunderground v.1.15,2013-06-25 07:00:00,
2013-06-25 02:02:00,70.7,68.3,29.86,South,177,5.0,7.0,92,0.00,,,0.00,Wunderground v.1.15,2013-06-25 07:02:00,
2013-06-25 02:04:00,70.8,68.7,29.86,SE,129,5.0,7.0,93,0.00,,,0.00,Wunderground v.1.15,2013-06-25 07:04:00,
2013-06-25 02:08:00,70.9,68.5,29.86,ESE,109,4.0,7.0,92,0.00,,,0.00,Wunderground v.1.15,2013-06-25 07:08:00,
2013-06-25 02:10:00,70.9,68.5,29.86,SSE,152,4.0,11.0,92,0.00,,,0.00,Wunderground v.1.15,2013-06-25 07:10:00,
2013-06-25 02:14:00,71.1,69.0,29.86,SE,141,5.0,11.0,93,0.00,,,0.00,Wunderground v.1.15,2013-06-25 07:14:00,
2013-06-25 02:20:00,71.1,69.0,29.87,East,96,5.0,5.0,93,0.00,,,0.00,Wunderground v.1.15,2013-06-25 07:20:00,
2013-06-25 02:24:00,71.1,69.0,29.86,SE,127,4.0,7.0,93,0.00,,,0.00,Wunderground v.1.15,2013-06-25 07:24:00,
2013-06-25 02:26:00,71.0,68.9,29.86,South,180,4.0,7.0,93,0.00,,,0.00,Wunderground v.1.15,2013-06-25 07:26:00,
2013-06-25 02:30:00,71.1,69.3,29.86,SSE,149,3.0,3.0,94,0.00,,,0.00,Wunderground v.1.15,2013-06-25 07:30:00,
2013-06-25 02:32:00,71.1,69.3,29.86,ESE,111,3.0,7.0,94,0.00,,,0.00,Wunderground v.1.15,2013-06-25 07:32:00,
2013-06-25 02:34:00,71.1,69.3,29.86,SE,146,3.0,7.0,94,0.00,,,0.00,Wunderground v.1.15,2013-06-25 07:34:00,
2013-06-25 02:36:00,71.0,69.2,29.86,SSE,163,3.0,7.0,94,0.00,,,0.00,Wunderground v.1.15,2013-06-25 07:36:00,
2013-06-25 02:38:00,70.9,69.1,29.86,SE,143,3.0,7.0,94,0.00,,,0.00,Wunderground v.1.15,2013-06-25 07:38:00,
2013-06-25 02:44:00,70.8,69.3,29.86,SE,134,3.0,7.0,95,0.00,,,0.00,Wunderground v.1.15,2013-06-25 07:44:00,
2013-06-25 02:46:00,70.8,69.3,29.86,SE,127,3.0,7.0,95,0.00,,,0.00,Wunderground v.1.15,2013-06-25 07:46:00,
2013-06-25 02:48:00,70.9,69.4,29.86,ESE,115,3.0,7.0,95,0.00,,,0.00,Wunderground v.1.15,2013-06-25 07:48:00,
2013-06-25 02:50:00,70.9,69.4,29.86,ESE,117,3.0,7.0,95,0.00,,,0.00,Wunderground v.1.15,2013-06-25 07:50:00,
2013-06-25 02:52:00,70.9,69.4,29.86,SE,127,3.0,7.0,95,0.00,,,0.00,Wunderground v.1.15,2013-06-25 07:52:00,
2013-06-25 02:54:00,70.9,69.7,29.86,ESE,116,3.0,7.0,96,0.00,,,0.00,Wunderground v.1.15,2013-06-25 07:54:00,
2013-06-25 02:56:00,71.0,69.5,29.86,East,100,3.0,7.0,95,0.00,,,0.00,Wunderground v.1.15,2013-06-25 07:56:00,
2013-06-25 02:58:00,71.0,69.5,29.85,SE,139,2.0,7.0,95,0.00,,,0.00,Wunderground v.1.15,2013-06-25 07:58:00,
2013-06-25 03:00:00,71.0,69.5,29.85,SSE,153,2.0,2.0,95,0.00,,,0.00,Wunderground v.1.15,2013-06-25 08:00:00,
2013-06-25 03:02:00,70.9,69.7,29.85,ESE,117,2.0,3.0,96,0.00,,,0.00,Wunderground v.1.15,2013-06-25 08:02:00,
2013-06-25 03:06:00,71.0,69.8,29.85,SE,129,2.0,7.0,96,0.00,,,0.00,Wunderground v.1.15,2013-06-25 08:06:00,
2013-06-25 03:10:00,71.0,69.8,29.86,North,357,2.0,7.0,96,0.00,,,0.00,Wunderground v.1.15,2013-06-25 08:10:00,
2013-06-25 03:12:00,71.0,69.8,29.86,North,11,2.0,8.0,96,0.00,,,0.00,Wunderground v.1.15,2013-06-25 08:12:00,
2013-06-25 03:14:00,70.8,69.3,29.86,North,4,5.0,10.0,95,0.00,,,0.00,Wunderground v.1.15,2013-06-25 08:14:00,
2013-06-25 03:16:00,70.6,68.8,29.86,North,359,7.0,10.0,94,0.00,,,0.00,Wunderground v.1.15,2013-06-25 08:16:00,
2013-06-25 03:18:00,70.4,68.6,29.86,North,5,8.0,15.0,94,0.00,,,0.00,Wunderground v.1.15,2013-06-25 08:18:00,
2013-06-25 03:20:00,70.3,68.5,29.85,NNE,15,10.0,12.0,94,0.00,,,0.00,Wunderground v.1.15,2013-06-25 08:20:00,
2013-06-25 03:22:00,70.5,69.0,29.85,NNE,33,12.0,14.0,95,0.00,,,0.00,Wunderground v.1.15,2013-06-25 08:22:00,
2013-06-25 03:26:00,71.7,70.5,29.85,ESE,107,10.0,14.0,96,0.00,,,0.00,Wunderground v.1.15,2013-06-25 08:26:00,
2013-06-25 03:28:00,72.6,71.4,29.85,ESE,121,9.0,14.0,96,0.00,,,0.00,Wunderground v.1.15,2013-06-25 08:28:00,
2013-06-25 03:32:00,73.2,71.1,29.84,SSE,165,6.0,11.0,93,0.00,,,0.00,Wunderground v.1.15,2013-06-25 08:32:00,
2013-06-25 03:34:00,73.5,71.4,29.85,SSW,205,7.0,18.0,93,0.00,,,0.00,Wunderground v.1.15,2013-06-25 08:34:00,
2013-06-25 03:40:00,74.0,71.5,29.85,South,181,8.0,9.0,92,0.00,,,0.00,Wunderground v.1.15,2013-06-25 08:40:00,
2013-06-25 03:42:00,74.4,71.9,29.85,ESE,119,8.0,9.0,92,0.00,,,0.00,Wunderground v.1.15,2013-06-25 08:42:00,
2013-06-25 03:44:00,74.3,71.5,29.85,South,176,7.0,9.0,91,0.00,,,0.00,Wunderground v.1.15,2013-06-25 08:44:00,
2013-06-25 03:48:00,74.2,71.4,29.85,South,183,5.0,9.0,91,0.00,,,0.00,Wunderground v.1.15,2013-06-25 08:48:00,
2013-06-25 03:50:00,74.1,71.3,29.85,SE,126,5.0,5.0,91,0.00,,,0.00,Wunderground v.1.15,2013-06-25 08:50:00,
2013-06-25 03:56:00,73.8,71.3,29.86,NNE,20,3.0,7.0,92,0.00,,,0.00,Wunderground v.1.15,2013-06-25 08:56:00,
2013-06-25 03:58:00,73.4,70.6,29.85,North,5,3.0,8.0,91,0.00,,,0.00,Wunderground v.1.15,2013-06-25 08:58:00,
2013-06-25 04:04:00,72.1,69.6,29.85,NNE,30,5.0,7.0,92,0.00,,,0.00,Wunderground v.1.15,2013-06-25 09:04:00,
2013-06-25 04:10:00,71.5,69.7,29.85,NNE,27,3.0,3.0,94,0.00,,,0.00,Wunderground v.1.15,2013-06-25 09:10:00,
2013-06-25 04:12:00,71.5,69.7,29.85,ENE,61,2.0,7.0,94,0.00,,,0.00,Wunderground v.1.15,2013-06-25 09:12:00,
2013-06-25 04:16:00,72.0,70.5,29.85,SE,124,3.0,7.0,95,0.00,,,0.00,Wunderground v.1.15,2013-06-25 09:16:00,
2013-06-25 04:18:00,72.2,70.7,29.84,East,98,3.0,7.0,95,0.00,,,0.00,Wunderground v.1.15,2013-06-25 09:18:00,
2013-06-25 04:20:00,72.3,70.8,29.85,SE,134,3.0,7.0,95,0.00,,,0.00,Wunderground v.1.15,2013-06-25 09:20:00,
2013-06-25 04:22:00,72.4,70.6,29.85,SE,141,4.0,7.0,94,0.00,,,0.00,Wunderground v.1.15,2013-06-25 09:22:00,
2013-06-25 04:24:00,72.4,70.6,29.84,SE,136,3.0,7.0,94,0.00,,,0.00,Wunderground v.1.15,2013-06-25 09:24:00,
2013-06-25 04:26:00,72.5,70.7,29.84,ESE,103,3.0,7.0,94,0.00,,,0.00,Wunderground v.1.15,2013-06-25 09:26:00,
2013-06-25 04:28:00,72.5,70.7,29.84,SE,146,3.0,7.0,94,0.00,,,0.00,Wunderground v.1.15,2013-06-25 09:28:00,
2013-06-25 04:32:00,72.6,70.8,29.84,SSW,204,3.0,7.0,94,0.00,,,0.00,Wunderground v.1.15,2013-06-25 09:32:00,
2013-06-25 04:34:00,72.6,70.8,29.83,East,98,3.0,7.0,94,0.00,,,0.00,Wunderground v.1.15,2013-06-25 09:34:00,
2013-06-25 04:36:00,72.6,70.8,29.83,South,170,3.0,7.0,94,0.00,,,0.00,Wunderground v.1.15,2013-06-25 09:36:00,
2013-06-25 04:40:00,72.7,70.9,29.83,South,180,3.0,3.0,94,0.00,,,0.00,Wunderground v.1.15,2013-06-25 09:40:00,
2013-06-25 04:42:00,72.6,70.8,29.83,South,186,3.0,7.0,94,0.00,,,0.00,Wunderground v.1.15,2013-06-25 09:42:00,
2013-06-25 04:44:00,72.6,70.8,29.83,East,101,3.0,7.0,94,0.00,,,0.00,Wunderground v.1.15,2013-06-25 09:44:00,
2013-06-25 04:46:00,72.5,70.7,29.83,WSW,257,3.0,7.0,94,0.00,,,0.00,Wunderground v.1.15,2013-06-25 09:46:00,
2013-06-25 04:48:00,72.5,70.7,29.83,South,169,2.0,7.0,94,0.00,,,0.00,Wunderground v.1.15,2013-06-25 09:48:00,
2013-06-25 04:50:00,72.5,70.7,29.83,SSE,162,3.0,7.0,94,0.00,,,0.00,Wunderground v.1.15,2013-06-25 09:50:00,
2013-06-25 04:54:00,72.5,70.7,29.83,SE,140,3.0,7.0,94,0.00,,,0.00,Wunderground v.1.15,2013-06-25 09:54:00,
2013-06-25 04:56:00,72.4,70.6,29.83,ESE,118,3.0,7.0,94,0.00,,,0.00,Wunderground v.1.15,2013-06-25 09:56:00,
2013-06-25 04:58:00,72.4,70.9,29.83,ESE,120,3.0,7.0,95,0.00,,,0.00,Wunderground v.1.15,2013-06-25 09:58:00,
2013-06-25 05:02:00,72.4,70.6,29.83,ESE,107,4.0,7.0,94,0.00,,,0.00,Wunderground v.1.15,2013-06-25 10:02:00,
2013-06-25 05:04:00,72.3,70.5,29.83,SE,129,4.0,7.0,94,0.00,,,0.00,Wunderground v.1.15,2013-06-25 10:04:00,
2013-06-25 05:08:00,72.2,70.7,29.83,SE,124,4.0,7.0,95,0.00,,,0.00,Wunderground v.1.15,2013-06-25 10:08:00,
2013-06-25 05:10:00,72.2,70.7,29.83,SE,126,4.0,7.0,95,0.00,,,0.00,Wunderground v.1.15,2013-06-25 10:10:00,
2013-06-25 05:14:00,72.2,70.7,29.83,SE,124,5.0,7.0,95,0.00,,,0.00,Wunderground v.1.15,2013-06-25 10:14:00,
2013-06-25 05:16:00,72.2,70.7,29.83,SE,131,5.0,7.0,95,0.00,,,0.00,Wunderground v.1.15,2013-06-25 10:16:00,
2013-06-25 05:18:00,72.1,70.6,29.83,SE,127,5.0,7.0,95,0.00,,,0.00,Wunderground v.1.15,2013-06-25 10:18:00,
2013-06-25 05:22:00,72.1,70.6,29.84,SE,130,5.0,7.0,95,0.00,,,0.00,Wunderground v.1.15,2013-06-25 10:22:00,
2013-06-25 05:24:00,72.1,70.6,29.84,ESE,114,5.0,7.0,95,0.00,,,0.00,Wunderground v.1.15,2013-06-25 10:24:00,
2013-06-25 05:26:00,72.1,70.6,29.84,SE,134,4.0,7.0,95,0.00,,,0.00,Wunderground v.1.15,2013-06-25 10:26:00,
2013-06-25 05:32:00,72.0,70.5,29.84,East,93,3.0,7.0,95,0.00,,,0.00,Wunderground v.1.15,2013-06-25 10:32:00,
2013-06-25 05:34:00,71.9,70.4,29.84,East,97,3.0,7.0,95,0.00,,,0.00,Wunderground v.1.15,2013-06-25 10:34:00,
2013-06-25 05:36:00,71.9,70.4,29.84,East,80,3.0,7.0,95,0.00,,,0.00,Wunderground v.1.15,2013-06-25 10:36:00,
2013-06-25 05:40:00,71.9,70.7,29.84,ENE,57,2.0,7.0,96,0.00,,,0.00,Wunderground v.1.15,2013-06-25 10:40:00,
2013-06-25 05:42:00,71.9,70.4,29.84,NE,56,2.0,7.0,95,0.00,,,0.00,Wunderground v.1.15,2013-06-25 10:42:00,
2013-06-25 05:46:00,71.5,70.0,29.84,NNE,26,2.0,7.0,95,0.00,,,0.00,Wunderground v.1.15,2013-06-25 10:46:00,
2013-06-25 05:48:00,71.2,69.7,29.84,NNE,18,2.0,7.0,95,0.00,,,0.00,Wunderground v.1.15,2013-06-25 10:48:00,
2013-06-25 05:50:00,71.0,69.5,29.84,NNE,27,2.0,2.0,95,0.00,,,0.00,Wunderground v.1.15,2013-06-25 10:50:00,
2013-06-25 05:54:00,70.6,69.4,29.84,ENE,77,2.0,7.0,96,0.00,,,0.00,Wunderground v.1.15,2013-06-25 10:54:00,
2013-06-25 05:56:00,70.5,69.3,29.84,ENE,65,2.0,7.0,96,0.00,,,0.00,Wunderground v.1.15,2013-06-25 10:56:00,
2013-06-25 05:58:00,70.5,69.6,29.84,East,86,2.0,7.0,97,0.00,,,0.00,Wunderground v.1.15,2013-06-25 10:58:00,
2013-06-25 06:00:00,70.5,69.6,29.84,ESE,102,1.0,1.0,97,0.00,,,0.00,Wunderground v.1.15,2013-06-25 11:00:00,
2013-06-25 06:02:00,70.4,69.5,29.84,ESE,105,1.0,7.0,97,0.00,,,0.00,Wunderground v.1.15,2013-06-25 11:02:00,
2013-06-25 06:04:00,70.4,69.5,29.84,East,92,1.0,7.0,97,0.00,,,0.00,Wunderground v.1.15,2013-06-25 11:04:00,
2013-06-25 06:06:00,70.4,69.5,29.84,ESE,110,1.0,7.0,97,0.00,,,0.00,Wunderground v.1.15,2013-06-25 11:06:00,
2013-06-25 06:10:00,70.3,69.4,29.84,East,94,1.0,7.0,97,0.00,,,0.00,Wunderground v.1.15,2013-06-25 11:10:00,
2013-06-25 06:12:00,70.3,69.4,29.84,East,95,1.0,7.0,97,0.00,,,0.00,Wunderground v.1.15,2013-06-25 11:12:00,
2013-06-25 06:14:00,70.3,69.4,29.84,East,95,1.0,7.0,97,0.00,,,0.00,Wunderground v.1.15,2013-06-25 11:14:00,
2013-06-25 06:16:00,70.4,69.5,29.84,East,95,1.0,7.0,97,0.00,,,0.00,Wunderground v.1.15,2013-06-25 11:16:00,
2013-06-25 06:18:00,70.5,69.6,29.83,East,95,2.0,7.0,97,0.00,,,0.00,Wunderground v.1.15,2013-06-25 11:18:00,
2013-06-25 06:24:00,70.7,69.8,29.83,SE,127,3.0,7.0,97,0.00,,,0.00,Wunderground v.1.15,2013-06-25 11:24:00,
2013-06-25 06:26:00,70.7,69.8,29.83,East,101,3.0,7.0,97,0.00,,,0.00,Wunderground v.1.15,2013-06-25 11:26:00,
2013-06-25 06:28:00,70.7,69.8,29.83,East,79,3.0,7.0,97,0.00,,,0.00,Wunderground v.1.15,2013-06-25 11:28:00,
2013-06-25 06:30:00,70.8,69.9,29.83,East,96,4.0,7.0,97,0.00,,,0.00,Wunderground v.1.15,2013-06-25 11:30:00,
2013-06-25 06:34:00,70.9,70.0,29.83,East,93,4.0,7.0,97,0.00,,,0.00,Wunderground v.1.15,2013-06-25 11:34:00,
2013-06-25 06:36:00,70.9,70.0,29.83,East,89,5.0,7.0,97,0.00,,,0.00,Wunderground v.1.15,2013-06-25 11:36:00,
2013-06-25 06:38:00,71.0,70.1,29.83,East,79,5.0,7.0,97,0.00,,,0.00,Wunderground v.1.15,2013-06-25 11:38:00,
2013-06-25 06:40:00,71.2,70.6,29.83,ESE,107,5.0,7.0,98,0.00,,,0.00,Wunderground v.1.15,2013-06-25 11:40:00,
2013-06-25 06:44:00,71.3,70.4,29.82,ESE,114,6.0,7.0,97,0.00,,,0.00,Wunderground v.1.15,2013-06-25 11:44:00,
2013-06-25 06:48:00,71.6,70.7,29.83,East,100,6.0,7.0,97,0.00,,,0.00,Wunderground v.1.15,2013-06-25 11:48:00,
2013-06-25 06:50:00,71.8,71.2,29.82,East,89,5.0,5.0,98,0.00,,,0.00,Wunderground v.1.15,2013-06-25 11:50:00,
2013-06-25 06:52:00,72.1,71.2,29.82,ESE,107,5.0,7.0,97,0.00,,,0.00,Wunderground v.1.15,2013-06-25 11:52:00,
2013-06-25 06:54:00,72.3,71.4,29.82,East,101,5.0,7.0,97,0.00,,,0.00,Wunderground v.1.15,2013-06-25 11:54:00,
2013-06-25 06:56:00,72.6,71.7,29.82,SE,136,5.0,7.0,97,0.00,,,0.00,Wunderground v.1.15,2013-06-25 11:56:00,
2013-06-25 06:58:00,73.0,72.1,29.82,East,84,5.0,7.0,97,0.00,,,0.00,Wunderground v.1.15,2013-06-25 11:58:00,
2013-06-25 07:02:00,73.5,72.3,29.83,East,89,4.0,7.0,96,0.00,,,0.00,Wunderground v.1.15,2013-06-25 12:02:00,
2013-06-25 07:06:00,73.8,72.3,29.83,East,95,4.0,7.0,95,0.00,,,0.00,Wunderground v.1.15,2013-06-25 12:06:00,
2013-06-25 07:10:00,74.0,72.5,29.83,ENE,64,3.0,7.0,95,0.00,,,0.00,Wunderground v.1.15,2013-06-25 12:10:00,
2013-06-25 07:12:00,74.1,72.6,29.84,ENE,63,3.0,7.0,95,0.00,,,0.00,Wunderground v.1.15,2013-06-25 12:12:00,
2013-06-25 07:18:00,74.3,72.8,29.85,ENE,61,1.0,7.0,95,0.00,,,0.00,Wunderground v.1.15,2013-06-25 12:18:00,
2013-06-25 07:20:00,74.4,72.6,29.86,North,4,1.0,7.0,94,0.00,,,0.00,Wunderground v.1.15,2013-06-25 12:20:00,
2013-06-25 07:22:00,74.5,73.0,29.86,North,356,1.0,7.0,95,0.00,,,0.00,Wunderground v.1.15,2013-06-25 12:22:00,
2013-06-25 07:26:00,74.5,73.0,29.86,NNW,336,1.0,7.0,95,0.00,,,0.00,Wunderground v.1.15,2013-06-25 12:26:00,
2013-06-25 07:28:00,74.3,72.5,29.86,North,6,1.0,7.0,94,0.00,,,0.00,Wunderground v.1.15,2013-06-25 12:28:00,
2013-06-25 07:30:00,74.2,72.4,29.87,North,6,2.0,2.0,94,0.00,,,0.00,Wunderground v.1.15,2013-06-25 12:30:00,
2013-06-25 07:32:00,74.0,72.5,29.86,North,6,1.0,7.0,95,0.00,,,0.00,Wunderground v.1.15,2013-06-25 12:32:00,
2013-06-25 07:34:00,73.8,72.3,29.86,East,98,1.0,7.0,95,0.00,,,0.00,Wunderground v.1.15,2013-06-25 12:34:00,
2013-06-25 07:38:00,73.6,72.4,29.86,ENE,70,1.0,7.0,96,0.00,,,0.00,Wunderground v.1.15,2013-06-25 12:38:00,
2013-06-25 07:40:00,73.6,72.4,29.86,East,87,1.0,7.0,96,0.00,,,0.00,Wunderground v.1.15,2013-06-25 12:40:00,
2013-06-25 07:44:00,73.6,72.4,29.86,ESE,112,1.0,7.0,96,0.00,,,0.00,Wunderground v.1.15,2013-06-25 12:44:00,
2013-06-25 07:46:00,73.5,72.3,29.86,ESE,110,1.0,7.0,96,0.00,,,0.00,Wunderground v.1.15,2013-06-25 12:46:00,
2013-06-25 07:52:00,73.5,72.6,29.88,ESE,115,1.0,7.0,97,0.00,,,0.00,Wunderground v.1.15,2013-06-25 12:52:00,
2013-06-25 07:54:00,73.5,72.6,29.88,ESE,114,1.0,7.0,97,0.00,,,0.00,Wunderground v.1.15,2013-06-25 12:54:00,
2013-06-25 07:58:00,73.6,72.7,29.87,ESE,115,0.0,7.0,97,0.00,,,0.00,Wunderground v.1.15,2013-06-25 12:58:00,
2013-06-25 08:02:00,73.6,72.7,29.88,ESE,114,0.0,7.0,97,0.00,,,0.00,Wunderground v.1.15,2013-06-25 13:02:00,
2013-06-25 08:04:00,73.6,72.7,29.87,ESE,114,0.0,7.0,97,0.00,,,0.00,Wunderground v.1.15,2013-06-25 13:04:00,
2013-06-25 08:06:00,73.7,72.8,29.88,ESE,114,0.0,7.0,97,0.00,,,0.00,Wunderground v.1.15,2013-06-25 13:06:00,
2013-06-25 08:08:00,73.7,72.8,29.88,ESE,115,0.0,7.0,97,0.00,,,0.00,Wunderground v.1.15,2013-06-25 13:08:00,
2013-06-25 08:10:00,73.8,72.9,29.88,SW,224,0.0,7.0,97,0.00,,,0.00,Wunderground v.1.15,2013-06-25 13:10:00,
2013-06-25 08:12:00,73.9,73.0,29.88,SSW,208,0.0,7.0,97,0.00,,,0.00,Wunderground v.1.15,2013-06-25 13:12:00,
2013-06-25 08:18:00,74.1,72.9,29.90,NW,309,2.0,7.0,96,0.00,,,0.00,Wunderground v.1.15,2013-06-25 13:18:00,
2013-06-25 08:20:00,73.9,72.7,29.90,NNW,328,3.0,7.0,96,0.00,,,0.00,Wunderground v.1.15,2013-06-25 13:20:00,
2013-06-25 08:22:00,73.7,72.5,29.90,NNW,338,3.0,7.0,96,0.00,,,0.00,Wunderground v.1.15,2013-06-25 13:22:00,
2013-06-25 08:26:00,73.1,71.9,29.91,NNW,340,6.0,7.0,96,0.00,,,0.00,Wunderground v.1.15,2013-06-25 13:26:00,
2013-06-25 08:28:00,73.0,72.1,29.91,NNW,328,7.0,7.0,97,0.00,,,0.00,Wunderground v.1.15,2013-06-25 13:28:00,
2013-06-25 08:30:00,72.9,72.0,29.91,NW,326,7.0,7.0,97,0.00,,,0.00,Wunderground v.1.15,2013-06-25 13:30:00,
2013-06-25 08:34:00,72.8,71.9,29.90,North,350,5.0,7.0,97,0.00,,,0.00,Wunderground v.1.15,2013-06-25 13:34:00,
2013-06-25 08:36:00,72.8,71.9,29.90,NNW,337,4.0,7.0,97,0.00,,,0.00,Wunderground v.1.15,2013-06-25 13:36:00,
2013-06-25 08:40:00,72.9,72.0,29.91,WNW,293,3.0,7.0,97,0.00,,,0.00,Wunderground v.1.15,2013-06-25 13:40:00,
2013-06-25 08:42:00,73.1,72.2,29.92,WNW,288,3.0,8.0,97,0.00,,,0.00,Wunderground v.1.15,2013-06-25 13:42:00,
2013-06-25 08:44:00,73.2,72.3,29.92,WNW,290,4.0,8.0,97,0.00,,,0.01,Wunderground v.1.15,2013-06-25 13:44:00,
2013-06-25 08:50:00,73.1,71.9,29.89,NNE,15,4.0,7.0,96,0.25,,,0.03,Wunderground v.1.15,2013-06-25 13:50:00,
2013-06-25 08:54:00,72.9,71.7,29.90,NW,321,3.0,7.0,96,0.10,,,0.03,Wunderground v.1.15,2013-06-25 13:54:00,
2013-06-25 08:56:00,72.8,71.6,29.90,NW,304,4.0,7.0,96,0.08,,,0.03,Wunderground v.1.15,2013-06-25 13:56:00,
2013-06-25 08:58:00,72.7,71.5,29.91,NW,308,4.0,7.0,96,0.73,,,0.05,Wunderground v.1.15,2013-06-25 13:58:00,
2013-06-25 09:02:00,72.4,71.2,29.92,WNW,298,4.0,7.0,96,0.25,,,0.06,Wunderground v.1.15,2013-06-25 14:02:00,
2013-06-25 09:04:00,72.3,71.1,29.92,WNW,300,4.0,7.0,96,0.13,,,0.06,Wunderground v.1.15,2013-06-25 14:04:00,
2013-06-25 09:08:00,72.1,70.9,29.92,WSW,246,4.0,7.0,96,0.07,,,0.06,Wunderground v.1.15,2013-06-25 14:08:00,
2013-06-25 09:12:00,72.0,70.8,29.92,West,275,3.0,7.0,96,0.05,,,0.06,Wunderground v.1.15,2013-06-25 14:12:00,
2013-06-25 09:18:00,71.9,70.7,29.92,West,274,1.0,7.0,96,0.00,,,0.06,Wunderground v.1.15,2013-06-25 14:18:00,
2013-06-25 09:20:00,71.9,70.7,29.92,WSW,239,1.0,1.0,96,0.00,,,0.06,Wunderground v.1.15,2013-06-25 14:20:00,
2013-06-25 09:22:00,71.9,71.0,29.92,South,186,1.0,1.0,97,0.00,,,0.06,Wunderground v.1.15,2013-06-25 14:22:00,
2013-06-25 09:24:00,71.9,71.0,29.92,South,186,1.0,1.0,97,0.00,,,0.06,Wunderground v.1.15,2013-06-25 14:24:00,
2013-06-25 09:26:00,71.9,71.0,29.92,South,186,0.0,1.0,97,0.00,,,0.06,Wunderground v.1.15,2013-06-25 14:26:00,
2013-06-25 09:28:00,72.0,71.1,29.91,East,91,1.0,3.0,97,0.00,,,0.06,Wunderground v.1.15,2013-06-25 14:28:00,
2013-06-25 09:32:00,72.0,71.1,29.89,ENE,63,2.0,3.0,97,0.00,,,0.06,Wunderground v.1.15,2013-06-25 14:32:00,
2013-06-25 09:34:00,72.0,71.1,29.89,ENE,61,2.0,3.0,97,0.00,,,0.06,Wunderground v.1.15,2013-06-25 14:34:00,
2013-06-25 09:36:00,72.0,71.1,29.90,ENE,61,2.0,3.0,97,0.00,,,0.06,Wunderground v.1.15,2013-06-25 14:36:00,
2013-06-25 09:38:00,72.0,71.1,29.89,East,98,2.0,3.0,97,0.00,,,0.06,Wunderground v.1.15,2013-06-25 14:38:00,
2013-06-25 09:44:00,72.2,71.3,29.89,NE,55,1.0,3.0,97,0.00,,,0.06,Wunderground v.1.15,2013-06-25 14:44:00,
2013-06-25 09:46:00,72.4,71.5,29.89,NE,50,2.0,3.0,97,0.00,,,0.06,Wunderground v.1.15,2013-06-25 14:46:00,
2013-06-25 09:48:00,72.5,71.6,29.88,NE,43,2.0,4.0,97,0.00,,,0.06,Wunderground v.1.15,2013-06-25 14:48:00,
2013-06-25 09:52:00,72.7,71.8,29.88,NNE,26,3.0,5.0,97,0.00,,,0.06,Wunderground v.1.15,2013-06-25 14:52:00,
2013-06-25 09:58:00,72.8,71.9,29.88,ESE,120,5.0,6.0,97,0.00,,,0.06,Wunderground v.1.15,2013-06-25 14:58:00,
2013-06-25 10:00:00,72.8,71.9,29.88,ESE,118,5.0,7.0,97,0.00,,,0.06,Wunderground v.1.15,2013-06-25 15:00:00,
2013-06-25 10:02:00,72.9,72.0,29.88,SE,124,6.0,7.0,97,0.00,,,0.06,Wunderground v.1.15,2013-06-25 15:02:00,
2013-06-25 10:20:00,73.9,72.4,29.88,ESE,119,6.0,8.0,95,0.00,,,0.06,Wunderground v.1.15,2013-06-25 15:20:00,
2013-06-25 10:22:00,74.0,72.5,29.87,ESE,118,6.0,8.0,95,0.00,,,0.06,Wunderground v.1.15,2013-06-25 15:22:00,
2013-06-25 10:26:00,74.3,72.5,29.87,SE,127,7.0,8.0,94,0.00,,,0.06,Wunderground v.1.15,2013-06-25 15:26:00,
2013-06-25 10:30:00,74.5,71.7,29.87,SE,127,7.0,10.0,91,0.00,,,0.06,Wunderground v.1.15,2013-06-25 15:30:00,
2013-06-25 10:32:00,74.8,72.3,29.87,ESE,113,8.0,10.0,92,0.00,,,0.06,Wunderground v.1.15,2013-06-25 15:32:00,
2013-06-25 10:34:00,75.1,72.9,29.87,ESE,117,8.0,10.0,93,0.00,,,0.06,Wunderground v.1.15,2013-06-25 15:34:00,
2013-06-25 10:36:00,75.3,72.2,29.86,SE,129,8.0,10.0,90,0.00,,,0.06,Wunderground v.1.15,2013-06-25 15:36:00,
2013-06-25 10:38:00,75.7,72.6,29.86,ESE,103,8.0,10.0,90,0.00,,,0.06,Wunderground v.1.15,2013-06-25 15:38:00,
2013-06-25 10:40:00,75.9,72.4,29.86,SE,131,7.0,8.0,89,0.00,,,0.06,Wunderground v.1.15,2013-06-25 15:40:00,
2013-06-25 10:42:00,76.2,73.1,29.86,SE,140,7.0,8.0,90,0.00,,,0.06,Wunderground v.1.15,2013-06-25 15:42:00,
2013-06-25 10:46:00,76.7,72.5,29.87,ESE,114,6.0,8.0,87,0.00,,,0.06,Wunderground v.1.15,2013-06-25 15:46:00,
2013-06-25 10:48:00,77.1,72.2,29.86,SSW,195,5.0,8.0,85,0.00,,,0.06,Wunderground v.1.15,2013-06-25 15:48:00,
2013-06-25 10:50:00,77.4,72.5,29.86,South,174,5.0,8.0,85,0.00,,,0.06,Wunderground v.1.15,2013-06-25 15:50:00,
2013-06-25 10:52:00,77.8,72.6,29.86,ESE,110,5.0,8.0,84,0.00,,,0.06,Wunderground v.1.15,2013-06-25 15:52:00,
2013-06-25 10:56:00,78.2,72.6,29.86,SSE,148,5.0,9.0,83,0.00,,,0.06,Wunderground v.1.15,2013-06-25 15:56:00,
2013-06-25 11:00:00,78.6,71.9,29.86,SE,143,6.0,6.0,80,0.00,,,0.06,Wunderground v.1.15,2013-06-25 16:00:00,
2013-06-25 11:04:00,79.2,73.6,29.86,SSE,155,5.0,8.0,83,0.00,,,0.06,Wunderground v.1.15,2013-06-25 16:04:00,
2013-06-25 11:06:00,79.6,73.3,29.86,SE,137,5.0,8.0,81,0.00,,,0.06,Wunderground v.1.15,2013-06-25 16:06:00,
2013-06-25 11:10:00,79.7,72.2,29.86,East,101,5.0,8.0,78,0.00,,,0.06,Wunderground v.1.15,2013-06-25 16:10:00,
2013-06-25 11:12:00,79.8,72.3,29.86,East,97,5.0,8.0,78,0.00,,,0.06,Wunderground v.1.15,2013-06-25 16:12:00,
2013-06-25 11:14:00,79.8,73.1,29.86,SE,136,5.0,8.0,80,0.00,,,0.06,Wunderground v.1.15,2013-06-25 16:14:00,
2013-06-25 11:18:00,79.8,73.1,29.86,SSE,150,5.0,9.0,80,0.00,,,0.06,Wunderground v.1.15,2013-06-25 16:18:00,
2013-06-25 11:20:00,80.1,73.4,29.86,SSW,200,5.0,5.0,80,0.00,,,0.06,Wunderground v.1.15,2013-06-25 16:20:00,
2013-06-25 11:22:00,80.3,72.8,29.86,ENE,77,5.0,8.0,78,0.00,,,0.06,Wunderground v.1.15,2013-06-25 16:22:00,
2013-06-25 11:24:00,80.6,73.1,29.86,SSE,164,4.0,8.0,78,0.00,,,0.06,Wunderground v.1.15,2013-06-25 16:24:00,
2013-06-25 11:26:00,80.7,72.8,29.86,SSE,164,4.0,8.0,77,0.00,,,0.06,Wunderground v.1.15,2013-06-25 16:26:00,
2013-06-25 11:32:00,80.9,73.4,29.86,SSE,154,3.0,8.0,78,0.00,,,0.06,Wunderground v.1.15,2013-06-25 16:32:00,
2013-06-25 11:34:00,81.0,72.3,29.86,South,181,4.0,8.0,75,0.00,,,0.06,Wunderground v.1.15,2013-06-25 16:34:00,
2013-06-25 11:36:00,81.1,72.8,29.86,South,184,4.0,8.0,76,0.00,,,0.06,Wunderground v.1.15,2013-06-25 16:36:00,
2013-06-25 11:38:00,81.2,72.9,29.86,SE,135,4.0,8.0,76,0.00,,,0.06,Wunderground v.1.15,2013-06-25 16:38:00,
2013-06-25 11:42:00,81.5,73.2,29.86,SE,131,4.0,8.0,76,0.00,,,0.06,Wunderground v.1.15,2013-06-25 16:42:00,
2013-06-25 11:44:00,81.8,73.5,29.86,SSE,153,4.0,8.0,76,0.00,,,0.06,Wunderground v.1.15,2013-06-25 16:44:00,
2013-06-25 11:48:00,82.4,74.1,29.86,South,169,4.0,8.0,76,0.00,,,0.06,Wunderground v.1.15,2013-06-25 16:48:00,
2013-06-25 11:50:00,82.5,73.8,29.86,SSE,167,5.0,8.0,75,0.00,,,0.06,Wunderground v.1.15,2013-06-25 16:50:00,
2013-06-25 11:52:00,82.7,74.4,29.86,SE,129,5.0,8.0,76,0.00,,,0.06,Wunderground v.1.15,2013-06-25 16:52:00,
2013-06-25 11:56:00,83.0,75.0,29.85,SSE,150,6.0,8.0,77,0.00,,,0.06,Wunderground v.1.15,2013-06-25 16:56:00,
2013-06-25 11:58:00,83.2,75.2,29.85,SSW,203,6.0,8.0,77,0.00,,,0.06,Wunderground v.1.15,2013-06-25 16:58:00,
2013-06-25 12:00:00,83.3,75.3,29.84,South,177,6.0,8.0,77,0.00,,,0.06,Wunderground v.1.15,2013-06-25 17:00:00,
2013-06-25 12:06:00,83.2,75.2,29.84,SSE,159,8.0,15.0,77,0.00,,,0.06,Wunderground v.1.15,2013-06-25 17:06:00,
2013-06-25 12:08:00,82.8,75.2,29.84,SSE,168,9.0,15.0,78,0.00,,,0.06,Wunderground v.1.15,2013-06-25 17:08:00,
2013-06-25 12:12:00,82.6,76.2,29.84,SSE,149,10.0,12.0,81,0.00,,,0.06,Wunderground v.1.15,2013-06-25 17:12:00,
2013-06-25 12:14:00,82.5,75.7,29.84,SSE,163,11.0,12.0,80,0.00,,,0.06,Wunderground v.1.15,2013-06-25 17:14:00,
2013-06-25 12:16:00,82.4,75.6,29.84,ESE,113,10.0,12.0,80,0.00,,,0.06,Wunderground v.1.15,2013-06-25 17:16:00,
2013-06-25 12:18:00,82.3,75.5,29.84,SSW,201,9.0,12.0,80,0.00,,,0.06,Wunderground v.1.15,2013-06-25 17:18:00,
2013-06-25 12:20:00,82.3,75.9,29.83,South,186,8.0,10.0,81,0.00,,,0.06,Wunderground v.1.15,2013-06-25 17:20:00,
2013-06-25 12:24:00,82.3,75.9,29.83,South,180,8.0,12.0,81,0.00,,,0.06,Wunderground v.1.15,2013-06-25 17:24:00,
2013-06-25 12:26:00,82.2,75.8,29.83,SSW,197,9.0,12.0,81,0.00,,,0.06,Wunderground v.1.15,2013-06-25 17:26:00,
2013-06-25 12:30:00,82.3,75.9,29.83,South,180,10.0,12.0,81,0.00,,,0.06,Wunderground v.1.15,2013-06-25 17:30:00,
2013-06-25 12:32:00,82.3,75.9,29.83,South,174,11.0,12.0,81,0.00,,,0.06,Wunderground v.1.15,2013-06-25 17:32:00,
2013-06-25 12:36:00,82.7,76.6,29.82,SSE,164,11.0,16.0,82,0.00,,,0.06,Wunderground v.1.15,2013-06-25 17:36:00,
2013-06-25 12:38:00,82.7,76.3,29.82,SE,127,12.0,16.0,81,0.00,,,0.06,Wunderground v.1.15,2013-06-25 17:38:00,
2013-06-25 12:40:00,82.7,76.3,29.82,South,187,13.0,13.0,81,0.00,,,0.06,Wunderground v.1.15,2013-06-25 17:40:00,
2013-06-25 12:42:00,82.5,75.7,29.82,South,184,14.0,18.0,80,0.00,,,0.06,Wunderground v.1.15,2013-06-25 17:42:00,
2013-06-25 12:44:00,82.5,76.4,29.82,South,173,15.0,18.0,82,0.00,,,0.06,Wunderground v.1.15,2013-06-25 17:44:00,
2013-06-25 12:48:00,82.5,76.8,29.82,SSE,157,16.0,21.0,83,0.00,,,0.06,Wunderground v.1.15,2013-06-25 17:48:00,
2013-06-25 12:50:00,82.5,76.4,29.82,SSE,167,16.0,16.0,82,0.00,,,0.06,Wunderground v.1.15,2013-06-25 17:50:00,
2013-06-25 12:52:00,82.3,76.3,29.82,SSE,162,16.0,22.0,82,0.00,,,0.06,Wunderground v.1.15,2013-06-25 17:52:00,
2013-06-25 12:54:00,82.2,76.2,29.81,SSW,204,15.0,22.0,82,0.00,,,0.06,Wunderground v.1.15,2013-06-25 17:54:00,
2013-06-25 12:58:00,82.1,76.1,29.81,SSW,198,15.0,22.0,82,0.00,,,0.06,Wunderground v.1.15,2013-06-25 17:58:00,
2013-06-25 13:02:00,82.0,76.3,29.81,South,188,15.0,17.0,83,0.00,,,0.06,Wunderground v.1.15,2013-06-25 18:02:00,
2013-06-25 13:06:00,82.0,76.7,29.81,SSE,166,14.0,17.0,84,0.00,,,0.06,Wunderground v.1.15,2013-06-25 18:06:00,
2013-06-25 13:08:00,82.0,76.3,29.81,SW,219,14.0,17.0,83,0.00,,,0.06,Wunderground v.1.15,2013-06-25 18:08:00,
2013-06-25 13:10:00,82.1,76.4,29.81,SSW,198,14.0,14.0,83,0.00,,,0.06,Wunderground v.1.15,2013-06-25 18:10:00,
2013-06-25 13:12:00,82.1,76.1,29.81,South,173,14.0,14.0,82,0.00,,,0.06,Wunderground v.1.15,2013-06-25 18:12:00,
2013-06-25 13:14:00,82.1,76.1,29.81,SSW,200,14.0,17.0,82,0.00,,,0.06,Wunderground v.1.15,2013-06-25 18:14:00,
2013-06-25 13:18:00,82.4,77.1,29.81,SSW,201,14.0,17.0,84,0.00,,,0.06,Wunderground v.1.15,2013-06-25 18:18:00,
2013-06-25 13:20:00,82.5,76.8,29.81,SSW,207,14.0,14.0,83,0.00,,,0.06,Wunderground v.1.15,2013-06-25 18:20:00,
2013-06-25 13:24:00,82.9,77.2,29.81,SSW,200,13.0,14.0,83,0.00,,,0.06,Wunderground v.1.15,2013-06-25 18:24:00,
2013-06-25 13:26:00,83.0,76.6,29.81,SSE,155,12.0,14.0,81,0.00,,,0.06,Wunderground v.1.15,2013-06-25 18:26:00,
2013-06-25 13:30:00,83.0,76.2,29.80,SSW,194,13.0,20.0,80,0.00,,,0.06,Wunderground v.1.15,2013-06-25 18:30:00,
2013-06-25 13:32:00,82.9,75.7,29.80,SW,215,13.0,20.0,79,0.00,,,0.06,Wunderground v.1.15,2013-06-25 18:32:00,
2013-06-25 13:36:00,82.8,76.0,29.80,SSW,210,14.0,20.0,80,0.00,,,0.06,Wunderground v.1.15,2013-06-25 18:36:00,
2013-06-25 13:38:00,82.8,76.0,29.80,WSW,240,13.0,20.0,80,0.00,,,0.06,Wunderground v.1.15,2013-06-25 18:38:00,
2013-06-25 13:40:00,82.8,76.4,29.80,SSE,160,12.0,14.0,81,0.00,,,0.06,Wunderground v.1.15,2013-06-25 18:40:00,
2013-06-25 13:42:00,82.8,76.4,29.80,SSW,193,11.0,14.0,81,0.00,,,0.06,Wunderground v.1.15,2013-06-25 18:42:00,
2013-06-25 13:44:00,82.8,76.4,29.80,SSE,160,10.0,14.0,81,0.00,,,0.06,Wunderground v.1.15,2013-06-25 18:44:00,
2013-06-25 13:48:00,82.7,75.9,29.79,SSW,200,11.0,14.0,80,0.00,,,0.06,Wunderground v.1.15,2013-06-25 18:48:00,
2013-06-25 13:50:00,82.7,76.3,29.79,SSW,204,11.0,11.0,81,0.00,,,0.06,Wunderground v.1.15,2013-06-25 18:50:00,
2013-06-25 13:54:00,82.8,76.4,29.79,South,186,12.0,14.0,81,0.00,,,0.06,Wunderground v.1.15,2013-06-25 18:54:00,
2013-06-25 13:58:00,82.8,76.0,29.79,SSE,160,12.0,14.0,80,0.00,,,0.06,Wunderground v.1.15,2013-06-25 18:58:00,
2013-06-25 14:00:00,82.8,76.4,29.79,South,183,11.0,11.0,81,0.00,,,0.06,Wunderground v.1.15,2013-06-25 19:00:00,
2013-06-25 14:04:00,82.9,76.5,29.79,SSW,212,10.0,12.0,81,0.00,,,0.06,Wunderground v.1.15,2013-06-25 19:04:00,
2013-06-25 14:06:00,82.9,76.5,29.79,SSW,197,9.0,12.0,81,0.00,,,0.06,Wunderground v.1.15,2013-06-25 19:06:00,
2013-06-25 14:08:00,82.9,76.5,29.79,SSW,207,9.0,12.0,81,0.00,,,0.06,Wunderground v.1.15,2013-06-25 19:08:00,
2013-06-25 14:12:00,83.0,76.6,29.79,SSE,166,8.0,12.0,81,0.00,,,0.06,Wunderground v.1.15,2013-06-25 19:12:00,
2013-06-25 14:14:00,83.0,76.6,29.79,SSW,212,8.0,12.0,81,0.00,,,0.06,Wunderground v.1.15,2013-06-25 19:14:00,
2013-06-25 14:18:00,83.0,76.9,29.79,ESE,120,8.0,12.0,82,0.00,,,0.06,Wunderground v.1.15,2013-06-25 19:18:00,
2013-06-25 14:22:00,83.0,76.9,29.79,South,181,9.0,9.0,82,0.00,,,0.06,Wunderground v.1.15,2013-06-25 19:22:00,
2013-06-25 14:24:00,83.0,76.9,29.79,SSW,212,9.0,9.0,82,0.00,,,0.06,Wunderground v.1.15,2013-06-25 19:24:00,
2013-06-25 14:26:00,83.0,77.3,29.79,WSW,253,8.0,9.0,83,0.00,,,0.06,Wunderground v.1.15,2013-06-25 19:26:00,
2013-06-25 14:28:00,82.9,76.8,29.79,SW,229,8.0,9.0,82,0.00,,,0.06,Wunderground v.1.15,2013-06-25 19:28:00,
2013-06-25 14:30:00,82.9,76.8,29.79,SW,221,8.0,12.0,82,0.00,,,0.06,Wunderground v.1.15,2013-06-25 19:30:00,
2013-06-25 14:34:00,82.8,76.7,29.79,South,187,8.0,12.0,82,0.00,,,0.06,Wunderground v.1.15,2013-06-25 19:34:00,
2013-06-25 14:36:00,82.8,76.7,29.79,SSW,200,8.0,12.0,82,0.00,,,0.06,Wunderground v.1.15,2013-06-25 19:36:00,
2013-06-25 14:38:00,82.8,76.4,29.79,SSW,203,9.0,15.0,81,0.00,,,0.06,Wunderground v.1.15,2013-06-25 19:38:00,
2013-06-25 14:42:00,82.8,76.4,29.79,South,176,12.0,16.0,81,0.00,,,0.06,Wunderground v.1.15,2013-06-25 19:42:00,
2013-06-25 14:44:00,82.8,76.4,29.79,South,181,13.0,16.0,81,0.00,,,0.06,Wunderground v.1.15,2013-06-25 19:44:00,
2013-06-25 14:46:00,82.8,76.4,29.79,SE,141,14.0,16.0,81,0.00,,,0.06,Wunderground v.1.15,2013-06-25 19:46:00,
2013-06-25 14:48:00,82.8,76.4,29.79,South,175,13.0,16.0,81,0.00,,,0.06,Wunderground v.1.15,2013-06-25 19:48:00,
2013-06-25 14:50:00,82.8,76.4,29.79,SW,219,12.0,13.0,81,0.00,,,0.06,Wunderground v.1.15,2013-06-25 19:50:00,
2013-06-25 14:54:00,82.8,76.4,29.79,SSW,198,12.0,13.0,81,0.00,,,0.06,Wunderground v.1.15,2013-06-25 19:54:00,
2013-06-25 14:56:00,82.8,76.7,29.78,SW,219,11.0,13.0,82,0.00,,,0.06,Wunderground v.1.15,2013-06-25 19:56:00,
2013-06-25 14:58:00,82.8,76.7,29.78,SSW,193,11.0,13.0,82,0.00,,,0.06,Wunderground v.1.15,2013-06-25 19:58:00,
2013-06-25 15:00:00,82.8,76.4,29.78,South,188,11.0,11.0,81,0.00,,,0.06,Wunderground v.1.15,2013-06-25 20:00:00,
2013-06-25 15:04:00,82.8,76.7,29.78,SSE,166,10.0,11.0,82,0.00,,,0.06,Wunderground v.1.15,2013-06-25 20:04:00,
2013-06-25 15:08:00,82.9,76.8,29.78,SW,224,10.0,12.0,82,0.00,,,0.06,Wunderground v.1.15,2013-06-25 20:08:00,
2013-06-25 15:10:00,82.9,76.5,29.79,SSW,208,10.0,14.0,81,0.00,,,0.06,Wunderground v.1.15,2013-06-25 20:10:00,
2013-06-25 15:20:00,83.2,77.5,29.78,WSW,256,9.0,9.0,83,0.00,,,0.06,Wunderground v.1.15,2013-06-25 20:20:00,
2013-06-25 15:24:00,83.4,77.7,29.78,SSW,199,7.0,9.0,83,0.00,,,0.06,Wunderground v.1.15,2013-06-25 20:24:00,
2013-06-25 15:28:00,83.2,76.8,29.78,SSW,195,8.0,9.0,81,0.00,,,0.06,Wunderground v.1.15,2013-06-25 20:28:00,
2013-06-25 15:32:00,83.1,76.7,29.77,SSW,206,8.0,10.0,81,0.00,,,0.06,Wunderground v.1.15,2013-06-25 20:32:00,
2013-06-25 15:36:00,83.0,76.6,29.77,West,264,9.0,11.0,81,0.00,,,0.06,Wunderground v.1.15,2013-06-25 20:36:00,
2013-06-25 15:40:00,83.0,76.6,29.78,SSW,204,10.0,10.0,81,0.00,,,0.06,Wunderground v.1.15,2013-06-25 20:40:00,
2013-06-25 15:42:00,83.0,76.2,29.77,SSW,203,10.0,10.0,80,0.00,,,0.06,Wunderground v.1.15,2013-06-25 20:42:00,
2013-06-25 15:44:00,83.1,77.0,29.77,South,179,9.0,10.0,82,0.00,,,0.06,Wunderground v.1.15,2013-06-25 20:44:00,
2013-06-25 15:46:00,83.2,76.8,29.77,South,187,9.0,10.0,81,0.00,,,0.06,Wunderground v.1.15,2013-06-25 20:46:00,
2013-06-25 15:48:00,83.2,76.4,29.77,SSW,200,9.0,10.0,80,0.00,,,0.06,Wunderground v.1.15,2013-06-25 20:48:00,
2013-06-25 15:52:00,83.2,76.4,29.77,SW,218,9.0,9.0,80,0.00,,,0.06,Wunderground v.1.15,2013-06-25 20:52:00,
2013-06-25 15:54:00,83.2,76.8,29.77,SW,217,9.0,9.0,81,0.00,,,0.06,Wunderground v.1.15,2013-06-25 20:54:00,
2013-06-25 15:56:00,83.2,76.4,29.77,SSW,203,9.0,12.0,80,0.00,,,0.06,Wunderground v.1.15,2013-06-25 20:56:00,
2013-06-25 15:58:00,83.3,76.5,29.77,SW,233,9.0,12.0,80,0.00,,,0.06,Wunderground v.1.15,2013-06-25 20:58:00,
2013-06-25 16:00:00,83.3,76.5,29.77,SSW,205,10.0,10.0,80,0.00,,,0.06,Wunderground v.1.15,2013-06-25 21:00:00,
2013-06-25 16:04:00,83.3,76.5,29.77,South,191,9.0,10.0,80,0.00,,,0.06,Wunderground v.1.15,2013-06-25 21:04:00,
2013-06-25 16:06:00,83.4,77.0,29.77,South,183,9.0,10.0,81,0.00,,,0.06,Wunderground v.1.15,2013-06-25 21:06:00,
2013-06-25 16:10:00,83.4,76.6,29.77,WSW,243,8.0,8.0,80,0.00,,,0.06,Wunderground v.1.15,2013-06-25 21:10:00,
2013-06-25 16:12:00,83.4,76.6,29.77,West,260,8.0,11.0,80,0.00,,,0.06,Wunderground v.1.15,2013-06-25 21:12:00,
2013-06-25 16:14:00,83.3,76.1,29.77,SSW,197,8.0,11.0,79,0.00,,,0.06,Wunderground v.1.15,2013-06-25 21:14:00,
2013-06-25 16:16:00,83.2,76.8,29.77,SW,233,9.0,11.0,81,0.00,,,0.06,Wunderground v.1.15,2013-06-25 21:16:00,
2013-06-25 16:18:00,83.2,76.8,29.77,SW,233,9.0,11.0,81,0.00,,,0.06,Wunderground v.1.15,2013-06-25 21:18:00,
2013-06-25 16:20:00,83.2,76.8,29.77,WSW,238,9.0,9.0,81,0.00,,,0.06,Wunderground v.1.15,2013-06-25 21:20:00,
2013-06-25 16:22:00,83.1,76.7,29.77,SW,225,9.0,15.0,81,0.00,,,0.06,Wunderground v.1.15,2013-06-25 21:22:00,
2013-06-25 16:24:00,83.1,76.7,29.77,WSW,246,9.0,15.0,81,0.00,,,0.06,Wunderground v.1.15,2013-06-25 21:24:00,
2013-06-25 16:26:00,83.1,75.9,29.77,SW,218,9.0,15.0,79,0.00,,,0.06,Wunderground v.1.15,2013-06-25 21:26:00,
2013-06-25 16:28:00,83.0,76.2,29.77,SW,224,10.0,15.0,80,0.00,,,0.06,Wunderground v.1.15,2013-06-25 21:28:00,
2013-06-25 16:32:00,82.8,76.0,29.77,SSW,210,11.0,12.0,80,0.00,,,0.06,Wunderground v.1.15,2013-06-25 21:32:00,
2013-06-25 16:34:00,82.6,75.8,29.77,SW,233,11.0,12.0,80,0.00,,,0.06,Wunderground v.1.15,2013-06-25 21:34:00,
2013-06-25 16:44:00,82.3,76.3,29.77,SW,217,8.0,8.0,82,0.00,,,0.06,Wunderground v.1.15,2013-06-25 21:44:00,
2013-06-25 16:46:00,82.2,76.5,29.77,SW,219,7.0,8.0,83,0.00,,,0.06,Wunderground v.1.15,2013-06-25 21:46:00,
2013-06-25 16:48:00,82.2,76.5,29.77,SW,236,7.0,10.0,83,0.00,,,0.06,Wunderground v.1.15,2013-06-25 21:48:00,
2013-06-25 16:52:00,82.1,76.4,29.77,WSW,240,6.0,10.0,83,0.00,,,0.06,Wunderground v.1.15,2013-06-25 21:52:00,
2013-06-25 16:54:00,82.1,76.4,29.77,WSW,247,6.0,8.0,83,0.00,,,0.06,Wunderground v.1.15,2013-06-25 21:54:00,
2013-06-25 16:58:00,82.0,76.3,29.77,SW,222,6.0,8.0,83,0.00,,,0.06,Wunderground v.1.15,2013-06-25 21:58:00,
2013-06-25 17:00:00,81.9,76.2,29.77,WSW,239,5.0,8.0,83,0.00,,,0.06,Wunderground v.1.15,2013-06-25 22:00:00,
2013-06-25 17:02:00,81.9,76.2,29.77,SW,215,6.0,8.0,83,0.00,,,0.06,Wunderground v.1.15,2013-06-25 22:02:00,
2013-06-25 17:04:00,81.8,76.1,29.77,SW,222,6.0,8.0,83,0.00,,,0.06,Wunderground v.1.15,2013-06-25 22:04:00,
2013-06-25 17:10:00,81.7,76.4,29.77,SW,222,5.0,5.0,84,0.00,,,0.06,Wunderground v.1.15,2013-06-25 22:10:00,
2013-06-25 17:12:00,81.7,76.4,29.77,SW,233,4.0,8.0,84,0.00,,,0.06,Wunderground v.1.15,2013-06-25 22:12:00,
2013-06-25 17:16:00,81.7,76.4,29.77,WSW,243,3.0,8.0,84,0.00,,,0.06,Wunderground v.1.15,2013-06-25 22:16:00,
2013-06-25 17:18:00,81.6,76.6,29.78,SW,229,4.0,8.0,85,0.00,,,0.06,Wunderground v.1.15,2013-06-25 22:18:00,
2013-06-25 17:20:00,81.6,76.6,29.78,WSW,248,4.0,4.0,85,0.00,,,0.06,Wunderground v.1.15,2013-06-25 22:20:00,
2013-06-25 17:24:00,81.4,76.5,29.78,South,188,4.0,8.0,85,0.00,,,0.06,Wunderground v.1.15,2013-06-25 22:24:00,
2013-06-25 17:26:00,81.3,76.7,29.78,South,191,4.0,8.0,86,0.00,,,0.06,Wunderground v.1.15,2013-06-25 22:26:00,
2013-06-25 17:30:00,81.2,76.6,29.77,SW,226,3.0,8.0,86,0.00,,,0.06,Wunderground v.1.15,2013-06-25 22:30:00,
2013-06-25 17:32:00,81.1,76.5,29.77,SW,229,3.0,8.0,86,0.00,,,0.06,Wunderground v.1.15,2013-06-25 22:32:00,
2013-06-25 17:38:00,81.0,76.4,29.77,SW,215,3.0,8.0,86,0.00,,,0.06,Wunderground v.1.15,2013-06-25 22:38:00,
2013-06-25 17:40:00,80.9,76.3,29.77,SW,217,2.0,8.0,86,0.00,,,0.06,Wunderground v.1.15,2013-06-25 22:40:00,
2013-06-25 17:42:00,80.9,76.7,29.77,SW,217,2.0,8.0,87,0.00,,,0.06,Wunderground v.1.15,2013-06-25 22:42:00,
2013-06-25 17:44:00,80.9,76.7,29.77,SW,225,2.0,8.0,87,0.00,,,0.06,Wunderground v.1.15,2013-06-25 22:44:00,
2013-06-25 17:46:00,80.8,76.6,29.77,SW,228,2.0,8.0,87,0.00,,,0.06,Wunderground v.1.15,2013-06-25 22:46:00,
2013-06-25 17:48:00,80.8,76.6,29.77,SSW,212,2.0,8.0,87,0.00,,,0.06,Wunderground v.1.15,2013-06-25 22:48:00,
2013-06-25 17:50:00,80.8,76.6,29.77,SW,224,2.0,8.0,87,0.00,,,0.06,Wunderground v.1.15,2013-06-25 22:50:00,
2013-06-25 17:54:00,80.8,76.6,29.77,SW,217,2.0,8.0,87,0.00,,,0.06,Wunderground v.1.15,2013-06-25 22:54:00,
2013-06-25 17:56:00,80.8,76.6,29.77,SW,233,1.0,8.0,87,0.00,,,0.06,Wunderground v.1.15,2013-06-25 22:56:00,
2013-06-25 17:58:00,80.7,76.8,29.77,SW,236,1.0,8.0,88,0.00,,,0.06,Wunderground v.1.15,2013-06-25 22:58:00,
2013-06-25 18:04:00,80.6,76.4,29.77,SSW,210,1.0,8.0,87,0.00,,,0.06,Wunderground v.1.15,2013-06-25 23:04:00,
2013-06-25 18:06:00,80.7,76.5,29.77,SSW,212,1.0,8.0,87,0.00,,,0.06,Wunderground v.1.15,2013-06-25 23:06:00,
2013-06-25 18:08:00,80.7,76.8,29.77,SSW,211,1.0,8.0,88,0.00,,,0.06,Wunderground v.1.15,2013-06-25 23:08:00,
2013-06-25 18:12:00,80.6,76.7,29.77,SSW,194,1.0,8.0,88,0.00,,,0.06,Wunderground v.1.15,2013-06-25 23:12:00,
2013-06-25 18:14:00,80.6,76.7,29.77,SSW,212,1.0,8.0,88,0.00,,,0.06,Wunderground v.1.15,2013-06-25 23:14:00,
2013-06-25 18:16:00,80.5,77.0,29.77,SSW,212,1.0,8.0,89,0.00,,,0.06,Wunderground v.1.15,2013-06-25 23:16:00,
2013-06-25 18:18:00,80.4,76.9,29.76,SW,226,0.0,8.0,89,0.00,,,0.06,Wunderground v.1.15,2013-06-25 23:18:00,
2013-06-25 18:20:00,80.4,76.9,29.76,WSW,243,0.0,8.0,89,0.00,,,0.06,Wunderground v.1.15,2013-06-25 23:20:00,
2013-06-25 18:24:00,80.3,76.8,29.76,SSW,197,0.0,8.0,89,0.00,,,0.06,Wunderground v.1.15,2013-06-25 23:24:00,
2013-06-25 18:26:00,80.3,76.8,29.76,SSW,193,0.0,8.0,89,0.00,,,0.06,Wunderground v.1.15,2013-06-25 23:26:00,
2013-06-25 18:28:00,80.3,76.8,29.76,SSW,197,0.0,8.0,89,0.00,,,0.06,Wunderground v.1.15,2013-06-25 23:28:00,
2013-06-25 18:32:00,80.4,76.9,29.76,SW,236,0.0,8.0,89,0.00,,,0.06,Wunderground v.1.15,2013-06-25 23:32:00,
2013-06-25 18:34:00,80.3,76.8,29.76,SW,236,0.0,8.0,89,0.00,,,0.06,Wunderground v.1.15,2013-06-25 23:34:00,
2013-06-25 18:36:00,80.4,76.9,29.76,SW,236,0.0,8.0,89,0.00,,,0.06,Wunderground v.1.15,2013-06-25 23:36:00,
2013-06-25 18:40:00,80.5,77.0,29.76,SW,226,0.0,8.0,89,0.00,,,0.06,Wunderground v.1.15,2013-06-25 23:40:00,
2013-06-25 18:42:00,80.5,77.0,29.76,SSW,208,0.0,8.0,89,0.00,,,0.06,Wunderground v.1.15,2013-06-25 23:42:00,
2013-06-25 18:46:00,80.5,77.0,29.76,SSW,208,0.0,8.0,89,0.00,,,0.06,Wunderground v.1.15,2013-06-25 23:46:00,
2013-06-25 18:52:00,80.6,77.1,29.76,SSW,208,0.0,8.0,89,0.00,,,0.06,Wunderground v.1.15,2013-06-25 23:52:00,
2013-06-25 18:58:00,80.8,77.3,29.76,SSW,208,0.0,8.0,89,0.00,,,0.06,Wunderground v.1.15,2013-06-25 23:58:00,
2013-06-25 19:00:00,80.9,77.4,29.76,SSW,208,0.0,8.0,89,0.00,,,0.06,Wunderground v.1.15,2013-06-26 00:00:00,
2013-06-25 19:02:00,81.0,77.4,29.76,South,180,0.0,8.0,89,0.00,,,0.06,Wunderground v.1.15,2013-06-26 00:02:00,
2013-06-25 19:04:00,81.0,77.1,29.76,SSE,167,0.0,8.0,88,0.00,,,0.06,Wunderground v.1.15,2013-06-26 00:04:00,
2013-06-25 19:08:00,80.9,76.7,29.76,SE,127,0.0,8.0,87,0.00,,,0.06,Wunderground v.1.15,2013-06-26 00:08:00,
2013-06-25 19:10:00,80.7,76.5,29.76,SE,127,0.0,8.0,87,0.00,,,0.06,Wunderground v.1.15,2013-06-26 00:10:00,
2013-06-25 19:16:00,80.5,77.0,29.76,SE,127,1.0,8.0,89,0.00,,,0.06,Wunderground v.1.15,2013-06-26 00:16:00,
2013-06-25 19:20:00,80.3,76.8,29.76,SE,124,1.0,8.0,89,0.00,,,0.06,Wunderground v.1.15,2013-06-26 00:20:00,
2013-06-25 19:22:00,80.3,76.8,29.76,SE,129,1.0,8.0,89,0.00,,,0.06,Wunderground v.1.15,2013-06-26 00:22:00,
2013-06-25 19:26:00,80.5,77.0,29.76,ESE,117,1.0,8.0,89,0.00,,,0.06,Wunderground v.1.15,2013-06-26 00:26:00,
2013-06-25 19:28:00,80.6,76.7,29.76,SE,129,2.0,8.0,88,0.00,,,0.06,Wunderground v.1.15,2013-06-26 00:28:00,
2013-06-25 19:32:00,81.0,76.8,29.76,SE,126,2.0,8.0,87,0.00,,,0.06,Wunderground v.1.15,2013-06-26 00:32:00,
2013-06-25 19:34:00,81.1,76.9,29.76,SE,133,3.0,8.0,87,0.00,,,0.06,Wunderground v.1.15,2013-06-26 00:34:00,
2013-06-25 19:38:00,81.2,76.6,29.76,SE,140,3.0,8.0,86,0.00,,,0.06,Wunderground v.1.15,2013-06-26 00:38:00,
2013-06-25 19:40:00,81.2,76.6,29.76,SE,124,3.0,8.0,86,0.00,,,0.06,Wunderground v.1.15,2013-06-26 00:40:00,
2013-06-25 19:44:00,81.1,76.5,29.76,SE,131,4.0,8.0,86,0.00,,,0.06,Wunderground v.1.15,2013-06-26 00:44:00,
2013-06-25 19:46:00,81.0,76.4,29.76,SE,136,4.0,8.0,86,0.00,,,0.06,Wunderground v.1.15,2013-06-26 00:46:00,
2013-06-25 19:50:00,80.7,76.5,29.76,SE,136,4.0,4.0,87,0.00,,,0.06,Wunderground v.1.15,2013-06-26 00:50:00,
2013-06-25 19:52:00,80.6,76.4,29.76,SE,127,3.0,8.0,87,0.00,,,0.06,Wunderground v.1.15,2013-06-26 00:52:00,
2013-06-25 19:54:00,80.5,76.6,29.76,SE,132,3.0,8.0,88,0.00,,,0.06,Wunderground v.1.15,2013-06-26 00:54:00,
2013-06-25 19:56:00,80.4,76.5,29.76,SE,126,4.0,8.0,88,0.00,,,0.06,Wunderground v.1.15,2013-06-26 00:56:00,
2013-06-25 19:58:00,80.3,76.4,29.76,SE,124,3.0,8.0,88,0.00,,,0.06,Wunderground v.1.15,2013-06-26 00:58:00,
2013-06-25 20:00:00,80.2,76.7,29.76,SE,136,3.0,8.0,89,0.00,,,0.06,Wunderground v.1.15,2013-06-26 01:00:00,
2013-06-25 20:02:00,80.1,76.6,29.76,ESE,117,4.0,8.0,89,0.00,,,0.06,Wunderground v.1.15,2013-06-26 01:02:00,
2013-06-25 20:08:00,79.9,76.4,29.76,SE,134,3.0,8.0,89,0.00,,,0.06,Wunderground v.1.15,2013-06-26 01:08:00,
2013-06-25 20:10:00,79.9,76.4,29.76,East,89,3.0,8.0,89,0.00,,,0.06,Wunderground v.1.15,2013-06-26 01:10:00,
2013-06-25 20:16:00,79.6,76.1,29.76,SE,139,2.0,8.0,89,0.00,,,0.06,Wunderground v.1.15,2013-06-26 01:16:00,
2013-06-25 20:18:00,79.5,76.3,29.76,SE,131,2.0,8.0,90,0.00,,,0.06,Wunderground v.1.15,2013-06-26 01:18:00,
2013-06-25 20:20:00,79.5,76.3,29.76,SE,124,2.0,8.0,90,0.00,,,0.06,Wunderground v.1.15,2013-06-26 01:20:00,
2013-06-25 20:22:00,79.4,76.2,29.76,SE,129,2.0,8.0,90,0.00,,,0.06,Wunderground v.1.15,2013-06-26 01:22:00,
2013-06-25 20:24:00,79.3,76.1,29.76,SE,124,2.0,8.0,90,0.00,,,0.06,Wunderground v.1.15,2013-06-26 01:24:00,
2013-06-25 20:28:00,79.1,76.2,29.76,SSE,150,2.0,8.0,91,0.00,,,0.06,Wunderground v.1.15,2013-06-26 01:28:00,
2013-06-25 20:30:00,79.1,76.2,29.76,SSE,150,1.0,1.0,91,0.00,,,0.06,Wunderground v.1.15,2013-06-26 01:30:00,
2013-06-25 20:32:00,79.0,76.1,29.76,SE,131,1.0,8.0,91,0.00,,,0.06,Wunderground v.1.15,2013-06-26 01:32:00,
2013-06-25 20:34:00,78.9,76.0,29.76,SE,143,1.0,8.0,91,0.00,,,0.06,Wunderground v.1.15,2013-06-26 01:34:00,
2013-06-25 20:36:00,78.8,75.9,29.76,SE,131,0.0,8.0,91,0.00,,,0.06,Wunderground v.1.15,2013-06-26 01:36:00,
2013-06-25 20:38:00,78.7,75.8,29.76,SE,144,0.0,8.0,91,0.00,,,0.06,Wunderground v.1.15,2013-06-26 01:38:00,
2013-06-25 20:40:00,78.6,75.8,29.76,South,179,0.0,8.0,91,0.00,,,0.06,Wunderground v.1.15,2013-06-26 01:40:00,
2013-06-25 20:42:00,78.5,76.0,29.76,South,186,0.0,8.0,92,0.00,,,0.06,Wunderground v.1.15,2013-06-26 01:42:00,
2013-06-25 20:44:00,78.4,75.9,29.76,SSE,150,1.0,8.0,92,0.00,,,0.06,Wunderground v.1.15,2013-06-26 01:44:00,
2013-06-25 20:46:00,78.3,75.8,29.76,South,180,1.0,8.0,92,0.00,,,0.06,Wunderground v.1.15,2013-06-26 01:46:00,
2013-06-25 20:48:00,78.2,75.7,29.76,South,172,2.0,8.0,92,0.00,,,0.06,Wunderground v.1.15,2013-06-26 01:48:00,
2013-06-25 20:50:00,78.1,75.3,29.76,South,179,3.0,8.0,91,0.00,,,0.06,Wunderground v.1.15,2013-06-26 01:50:00,
2013-06-25 20:54:00,77.9,74.7,29.76,SSE,163,4.0,8.0,90,0.00,,,0.06,Wunderground v.1.15,2013-06-26 01:54:00,
2013-06-25 20:56:00,77.8,74.6,29.76,South,180,4.0,8.0,90,0.00,,,0.06,Wunderground v.1.15,2013-06-26 01:56:00,
2013-06-25 21:00:00,77.7,74.5,29.76,South,188,4.0,4.0,90,0.00,,,0.06,Wunderground v.1.15,2013-06-26 02:00:00,
2013-06-25 21:02:00,77.5,74.3,29.76,SSE,167,3.0,8.0,90,0.00,,,0.06,Wunderground v.1.15,2013-06-26 02:02:00,
2013-06-25 21:04:00,77.4,74.2,29.76,South,186,2.0,8.0,90,0.00,,,0.06,Wunderground v.1.15,2013-06-26 02:04:00,
2013-06-25 21:06:00,77.3,74.1,29.76,SSW,193,2.0,8.0,90,0.00,,,0.06,Wunderground v.1.15,2013-06-26 02:06:00,
2013-06-25 21:08:00,77.1,73.9,29.76,SSW,193,1.0,8.0,90,0.00,,,0.06,Wunderground v.1.15,2013-06-26 02:08:00,
2013-06-25 21:14:00,76.7,73.5,29.76,SSE,168,0.0,8.0,90,0.00,,,0.06,Wunderground v.1.15,2013-06-26 02:14:00,
2013-06-25 21:16:00,76.6,73.4,29.76,ESE,117,0.0,8.0,90,0.00,,,0.06,Wunderground v.1.15,2013-06-26 02:16:00,
2013-06-25 21:18:00,76.4,73.2,29.76,ESE,114,1.0,8.0,90,0.00,,,0.06,Wunderground v.1.15,2013-06-26 02:18:00,
2013-06-25 21:20:00,76.4,72.9,29.76,SE,126,1.0,8.0,89,0.00,,,0.06,Wunderground v.1.15,2013-06-26 02:20:00,
2013-06-25 21:24:00,76.5,73.0,29.76,SE,124,2.0,8.0,89,0.00,,,0.06,Wunderground v.1.15,2013-06-26 02:24:00,
2013-06-25 21:28:00,76.4,73.2,29.77,SE,126,3.0,8.0,90,0.00,,,0.06,Wunderground v.1.15,2013-06-26 02:28:00,